Location: Clermont
(50.2608°N, 4.3172°E)
Time: 21:55:52
(UTC+00:00)

Cosmos 2061 Rocket - Pass Details

Date: 13 August 2020
Orbit: 966 x 1012 km, 82.9° (Epoch: 21 September)

Event Time Altitude Azimuth Distance (km) Brightness Sun altitude
Exits shadow 21:37:26 33° 155° (SSE) 1,565 4.5 -19.4°
Maximum altitude 21:40:05 58° 93° (E) 1,125 4.1 -19.6°
Drops below altitude 10° 21:46:09 10° 16° (NNE) 2,720 6.9 -20.2°
Sets 21:48:42 0° 13° (NNE) 3,672 7.7 -20.4°
